sat.trackr.live / text

‹ back to catalog

AAC-HSI-SAT3

NORAD 58848 · 2023-174DH

PAYLOAD ACTIVE UNKNOWN

§ Identity

Operator
Country
UK
Launch date
2023-11-11
Launch site
AFWTR
Launch vehicle
Mass (kg)
RCS (m²)

External: N2YO · Heavens-Above · Gunter

§ Orbital elements

Epoch: 2026-09-22T23:04:35.317632Z

Period
94.98 min
Inclination
97.3307°
Eccentricity
0.0011313
Mean motion
15.16162243 rev/d
Perigee alt
509.7 km
Apogee alt
525.3 km
Semi-major
6,895.6 km
B*
7.9091e-5
RAAN
322.0919°
Arg perigee
35.6778°
Mean anomaly
324.5209°
Rev number
15,871

§ Raw data

AAC-HSI-SAT31 58848U 23174DH  26265.96151988  .00001463  00000+0  79091-4 0  99912 58848  97.3307 322.0919 0011313  35.6778 324.5209 15.16162243158713

JSON: /api/v1/satellites/58848 · /tle

For live sub-satellite position, see the globe view (requires WebGL).

§ Visibility from observer

Set your observer location to see the next 7 days of passes ≥ 10°. The values pass through the URL so the page stays shareable.

No JS? Fill the form by hand. The geolocation button needs JavaScript.